Location: Dortmund
(51.5019°N, 7.6520°E)
Time: 03:43:09
(UTC+02:00)

ISS - Pass Details

Date: 08 January 2018
Orbit: 401 x 409 km, 51.6° (Epoch: 20 August)

Event Time Altitude Azimuth Distance (km) Brightness Sun altitude
Exits shadow 05:14:37 16° 85° (E) 1,189 -0.7 -29.8°
Drops below altitude 10° 05:15:25 10° 85° (E) 1,511 0.0 -29.7°
Sets 05:17:31 0° 86° (E) 2,380 1.3 -29.3°
